Temperature
17 17 17 17 17 17 17 17 17 17 17 17 17 17 17 17 17 17 17 17 17 17 16 16 16 16 16 16 16 16 16 16 16 16 16 15 15 15 15 15 15 14 15
16 16 17 17 17 17 17 17 17 17 17 17 17 17 17 17 17 17 17 17 17 16 16 16 16 16 16 16 16 16 16 16 16 15 15 15 15 15 15 15 15 14 14
16 16 16 16 16 17 17 17 17 17 17 17 17 17 17 17 17 17 17 17 17 16 16 16 16 16 16 16 16 15 15 15 15 15 15 14 14 15 15 15 15 14 14
16 16 16 16 16 16 16 16 17 17 17 17 17 17 17 17 17 16 16 16 16 16 16 16 16 16 16 15 15 15 15 15 15 15 14 14 14 14 14 14 14 14 14
15 15 16 16 16 16 16 16 16 16 16 16 16 16 16 16 16 16 16 16 16 16 16 16 16 16 15 15 15 15 15 15 15 15 14 14 14 14 14 14 14 14 14
15 15 15 15 15 16 16 16 16 16 16 16 16 16 16 16 16 16 16 16 16 16 16 16 15 15 15 15 15 15 15 15 15 14 14 14 14 14 14 14 14 14 14
15 15 15 15 15 15 15 16 16 16 16 16 16 16 16 16 16 16 16 16 16 16 16 15 15 15 15 15 15 15 15 15 14 14 14 14 14 14 14 14 14 14 14
15 15 15 15 15 15 15 15 15 15 15 16 16 16 16 16 16 15 15 15 15 15 15 15 15 15 15 15 15 15 15 15 14 14 14 14 14 14 14 14 14 14 14
15 15 15 15 15 15 15 15 15 15 15 15 15 15 15 15 15 15 15 15 15 15 15 15 15 15 15 14 14 14 14 14 14 14 14 14 14 14 14 14 14 14 14
14 14 14 14 14 15 15 15 15 15 15 15 15 15 15 15 15 15 15 15 15 15 14 14 14 14 14 14 14 14 14 14 13 13 13 14 14 14 14 14 14 14 13
14 14 14 14 14 14 14 14 14 14 14 14 14 14 14 14 14 14 14 14 14 14 14 14 14 14 14 14 14 14 14 13 13 13 13 13 14 13 13 13 13 13 13
14 14 14 14 14 14 14 14 14 14 14 14 14 14 14 14 14 14 14 14 14 14 14 14 14 14 14 13 13 13 13 13 13 13 13 13 13 13 13 13 13 13 13
14 14 14 14 14 14 14 14 13 13 14 13 13 13 13 13 13 13 13 13 13 13 13 13 13 13 13 13 13 13 13 13 12 12 13 13 13 13 13 13 13 13 13
13 13 13 13 13 13 13 13 13 13 13 13 13 13 13 13 13 12 13 13 13 13 13 13 13 13 13 13 13 12 12 12 12 12 12 13 13 12 12 12 12 12 12
13 13 13 13 13 13 13 13 13 13 12 12 13 12 12 12 12 12 12 12 12 12 12 12 12 12 12 12 12 12 12 12 12 12 12 12 12 12 12 12 12 12 12
12 12 12 13 13 12 12 12 12 12 12 12 12 12 12 12 12 12 11 11 11 12 12 12 12 12 12 12 12 12 12 12 12 12 12 12 12 12 12 12 12 12 12
12 12 12 12 12 12 12 12 12 12 12 12 12 12 12 11 11 11 11 11 11 11 11 11 11 11 11 11 11 11 11 11 11 11 11 11 11 11 12 11 11 11 11
12 12 12 12 12 12 12 12 11 11 11 11 11 11 11 11 11 11 11 11 11 11 11 11 11 11 11 11 11 11 11 11 11 11 11 11 11 11 11 11 11 11 11
11 11 11 11 11 11 11 11 11 11 11 11 11 11 11 11 11 10 10 10 10 10 10 10 10 10 10 10 10 10 10 10 10 10 10 10 10 10 10 10 11 11 11
11 11 11 11 11 11 11 11 11 11 11 11 10 10 10 10 10 10 10 10 10 9 9 9 9 9 9 9 9 9 10 10 10 10 10 10 10 10 10 10 10 10 10
11 11 11 11 11 11 10 10 10 10 10 10 10 10 10 10 10 10 10 9 9 9 9 9 9 9 9 9 8 8 9 9 9 9 9 9 9 9 9 9 9 9 9
10 10 10 10 10 10 10 10 10 10 10 10 10 10 10 10 9 9 9 9 9 8 8 8 8 8 8 8 8 7 8 8 9 9 9 9 9 9 9 9 8 9 9
10 10 10 10 10 10 10 10 10 10 10 9 9 9 9 9 9 9 9 8 8 8 8 8 8 7 7 7 7 7 7 8 8 8 8 8 8 8 8 8 8 8 8
9 9 10 10 10 10 9 9 9 9 9 9 9 9 9 9 8 8 8 8 8 7 7 7 7 7 7 7 7 7 7 7 7 7 8 8 8 8 8 8 8 8 8
9 9 9 9 9 9 9 9 9 9 9 9 8 8 8 8 8 8 8 8 7 7 7 7 7 6 6 6 6 6 6 6 6 6 7 7 7 7 7 7 7 7 7
8 9 9 9 9 9 9 8 8 8 8 8 8 8 8 7 8 7 7 7 7 7 7 6 6 6 6 6 6 6 6 6 6 6 6 6 7 7 7 7 7 7 7
Wind_Speed
5 6 8 8 10 11 11 11 11 11 11 11 10 10 10 10 10 9 9 9 8 8 8 8 8 9 9 9 8 8 8 8 8 8 7 7 7 7 7 6 6 7 8
6 8 10 9 10 11 11 11 11 11 11 10 10 10 10 9 9 9 9 9 8 8 7 7 7 8 8 8 8 8 8 8 7 7 6 7 7 7 7 5 3 6 7
8 9 11 10 11 11 11 11 11 11 10 10 10 9 9 9 8 9 9 8 8 7 6 6 7 7 7 8 8 8 8 7 7 6 5 5 6 6 6 5 5 5 5
8 9 10 11 11 11 11 11 11 10 10 9 9 9 8 8 7 8 8 8 8 7 6 6 6 6 7 7 7 7 7 7 6 5 4 4 4 5 5 5 4 4 4
8 9 10 10 11 11 11 11 11 10 10 9 8 8 8 8 7 7 7 7 7 7 6 6 6 6 6 7 7 6 6 6 5 4 3 3 3 5 4 4 4 4 4
8 9 10 10 10 10 10 10 10 10 9 9 8 8 7 7 7 7 7 7 7 6 6 6 5 6 6 6 6 6 6 6 6 3 3 3 3 4 4 4 4 4 4
8 8 10 10 10 10 10 9 9 9 9 8 8 8 7 7 7 7 7 7 6 6 5 5 5 5 5 5 5 5 5 5 4 3 3 3 2 3 4 5 5 5 4
7 7 9 10 10 10 9 9 9 8 8 8 7 7 7 7 7 7 7 7 6 6 5 4 4 4 4 4 4 4 4 4 4 3 3 3 3 4 4 5 5 5 5
7 6 6 8 9 9 9 9 8 8 7 7 7 7 7 6 6 6 6 6 5 5 4 4 3 3 3 3 4 4 4 5 4 3 4 3 4 5 6 6 6 6 6
5 5 5 5 6 7 7 8 8 7 7 7 6 6 6 6 5 5 4 5 4 4 3 3 3 2 3 3 3 4 5 6 5 4 4 3 3 6 7 7 7 7 7
4 4 4 4 5 5 6 7 7 7 6 5 5 6 4 3 3 3 3 3 3 3 3 3 2 2 2 3 3 4 6 5 5 4 4 2 4 7 8 9 9 9 9
5 4 3 4 4 4 4 5 5 4 4 3 3 3 2 2 2 1 3 3 2 2 2 2 2 3 3 3 3 5 5 6 5 5 4 3 6 8 9 10 11 11 11
6 5 4 4 4 3 3 3 3 3 3 3 2 2 1 1 1 1 1 2 2 3 3 3 3 3 3 3 3 4 5 5 5 5 5 5 8 10 10 11 11 12 12
6 6 5 4 4 4 3 3 3 3 2 2 2 2 1 1 0 0 1 1 2 2 3 3 3 4 4 5 5 5 5 5 6 6 5 6 9 10 11 12 12 12 12
7 6 6 5 5 4 4 3 3 3 3 3 2 2 2 1 1 1 1 2 2 2 3 3 4 4 5 5 5 6 6 7 7 7 6 7 9 11 12 13 14 14 14
8 7 6 6 6 5 4 3 3 3 3 3 3 3 3 2 2 2 2 2 2 3 3 4 5 5 5 5 6 7 7 7 8 8 8 8 10 12 13 14 15 15 15
8 7 6 6 6 6 5 5 3 3 3 3 3 4 3 3 3 3 3 3 3 4 4 4 5 5 5 5 7 7 7 8 8 9 9 9 9 11 13 14 15 15 16
8 7 6 6 6 6 5 5 3 4 4 3 3 4 4 4 4 3 3 4 4 4 4 4 5 5 5 6 6 7 7 7 9 9 9 9 9 9 11 13 14 15 16
8 8 7 7 7 6 5 4 4 4 4 4 4 4 4 5 5 4 4 4 5 4 4 5 5 5 6 6 7 7 7 8 8 9 10 10 10 10 10 11 13 15 15
8 8 8 8 7 6 5 4 4 4 4 4 4 4 5 5 5 5 4 5 5 5 5 5 6 6 6 6 7 7 8 9 8 9 9 9 9 10 11 11 10 11 14
8 8 8 8 7 6 5 5 5 5 4 4 4 5 6 5 5 5 5 5 5 6 7 7 7 7 6 5 6 7 8 9 9 9 8 8 9 10 11 11 10 10 10
9 8 8 8 8 7 6 5 4 5 4 4 4 5 6 6 6 5 6 6 6 6 7 8 7 7 6 5 5 6 6 7 8 8 9 9 10 9 10 11 11 11 11
8 8 7 8 7 7 6 4 4 4 4 5 5 5 5 6 6 6 7 7 7 7 7 8 8 9 7 7 6 6 6 7 8 7 9 9 10 9 9 10 12 12 12
8 7 7 7 7 7 6 6 7 6 6 6 5 5 6 6 6 7 7 7 7 7 8 9 9 8 9 7 7 8 9 8 7 7 7 9 10 10 11 10 11 12 12
6 6 6 6 6 6 7 7 7 7 6 5 5 6 6 5 6 7 7 7 8 8 9 9 9 10 9 9 8 8 9 8 10 9 10 9 9 9 9 10 9 10 11
5 5 5 6 6 6 6 7 7 8 7 7 6 6 5 5 5 7 7 8 8 8 9 9 10 11 10 10 10 9 9 8 8 9 10 10 10 9 9 8 9 9 9
Wind_Direction
134 134 124 121 125 122 119 115 112 111 113 113 115 118 121 123 124 124 125 127 127 128 130 133 132 130 129 126 123 120 114 110 110 109 108 106 106 113 119 122 130 116 109
133 135 122 118 123 121 117 115 112 110 109 110 110 112 115 118 121 124 124 124 124 125 127 131 133 132 130 127 123 120 117 116 115 118 120 122 115 112 118 124 119 111 119
132 132 129 117 120 119 116 114 112 110 108 107 109 109 111 114 119 123 123 122 122 124 123 121 121 129 131 130 129 127 122 121 123 130 151 143 126 122 124 123 120 129 138
129 131 123 117 116 117 115 113 112 111 108 107 108 110 111 114 117 121 122 120 118 120 121 119 116 118 122 129 133 134 131 130 132 151 161 141 137 130 142 143 139 138 146
128 128 116 113 115 115 114 113 112 110 107 106 107 109 110 112 112 115 119 119 117 115 114 113 116 119 120 124 129 134 135 138 146 174 152 151 151 138 161 165 157 151 157
128 128 118 113 115 115 114 114 112 110 107 105 104 108 109 110 110 111 110 111 110 114 115 114 116 121 121 127 132 131 136 142 170 176 165 171 168 155 179 181 175 170 175
124 122 123 115 115 114 114 114 114 113 112 109 105 105 107 110 108 110 109 107 108 111 117 121 123 124 131 135 141 145 146 159 192 182 180 182 172 165 193 195 194 191 192
125 120 125 119 114 112 111 112 113 112 111 111 110 107 105 105 109 111 110 108 106 106 111 119 129 133 139 149 153 157 156 180 203 202 201 198 175 189 210 213 209 208 208
124 122 124 135 129 120 114 112 110 108 108 109 110 109 105 103 101 109 113 113 113 111 109 110 122 139 155 161 170 172 173 197 215 212 215 212 186 210 224 225 220 223 223
130 129 127 132 140 139 132 119 113 108 103 101 101 103 107 112 112 108 120 119 121 121 123 124 123 132 169 180 183 189 190 203 225 226 225 214 200 226 236 235 230 231 230
146 144 145 143 144 145 139 133 129 119 110 114 111 104 116 130 132 128 112 110 127 133 137 140 141 149 186 190 192 195 202 222 232 232 234 242 236 243 249 246 240 235 237
178 168 164 166 158 158 151 149 148 142 138 139 134 128 123 121 121 130 127 131 149 159 168 170 184 193 212 218 204 205 224 238 237 236 237 244 252 256 256 251 247 243 242
190 182 182 178 177 174 168 161 157 157 158 163 154 154 156 139 132 157 164 172 195 201 212 206 215 226 233 235 236 233 242 241 242 243 240 241 257 261 261 259 256 251 246
199 197 193 189 188 187 186 177 176 173 173 172 177 182 188 188 217 246 235 239 236 233 235 234 239 242 245 243 241 242 246 247 246 249 248 237 256 262 265 265 262 257 254
208 205 202 200 198 194 194 197 188 189 191 189 190 193 206 229 237 246 258 255 256 261 254 250 246 246 248 251 250 249 249 252 255 251 251 237 249 257 262 266 265 261 259
209 207 204 204 203 200 202 204 202 197 198 203 203 208 213 227 239 248 257 267 268 266 265 262 256 252 250 251 256 254 254 255 256 258 260 247 241 250 259 264 265 263 262
209 205 202 204 206 206 208 209 212 205 206 206 210 219 221 232 241 247 254 260 268 270 265 264 264 260 259 257 258 259 257 255 257 257 259 260 253 246 252 260 263 263 263
209 206 202 201 206 208 209 209 213 216 212 213 218 223 225 233 241 248 253 260 267 269 270 265 265 265 262 261 262 261 262 260 259 260 258 257 259 258 252 252 260 263 264
210 208 204 204 207 210 209 210 218 225 223 224 226 228 232 236 240 246 253 260 263 262 265 268 268 267 270 268 268 268 265 262 262 260 258 257 258 259 260 253 253 259 261
212 209 206 205 207 206 205 207 216 227 226 228 231 235 240 242 244 250 253 258 260 259 260 262 267 268 269 271 273 273 269 265 261 259 259 259 257 257 259 262 256 254 254
210 208 205 206 204 203 203 208 215 223 224 227 231 237 240 244 246 249 255 258 257 256 258 261 265 268 272 277 279 280 274 266 258 259 258 258 259 259 260 259 258 259 257
210 209 208 208 206 208 210 213 222 231 230 233 234 236 239 242 245 248 250 255 256 258 257 257 259 262 269 265 272 283 279 272 259 256 256 255 258 258 258 258 259 259 261
210 208 209 209 210 210 209 209 213 229 229 231 234 238 242 246 246 247 251 255 256 256 255 255 255 255 262 262 256 259 269 271 285 262 255 254 254 255 258 260 260 259 260
212 208 211 209 211 211 207 212 217 230 233 239 240 245 251 251 252 249 250 254 257 257 256 255 255 256 254 257 258 254 259 274 274 278 265 256 258 259 259 261 263 261 259
209 206 210 209 211 213 213 217 224 238 238 241 243 248 255 254 252 252 252 254 255 256 257 257 256 254 252 253 254 255 259 261 260 265 275 276 269 262 262 263 264 263 261
203 202 207 208 212 214 215 219 225 239 241 242 245 249 255 256 254 254 255 254 255 255 256 257 256 253 252 253 253 251 251 254 254 257 267 273 274 275 271 268 266 264 264
Height
1503 1504 1505 1507 1508 1509 1511 1512 1513 1514 1515 1516 1516 1517 1518 1518 1519 1519 1520 1520 1521 1521 1522 1522 1522 1522 1523 1523 1523 1523 1523 1523 1522 1522 1522 1522 1522 1522 1522 1523 1523 1523 1523
1503 1504 1505 1507 1508 1510 1511 1512 1513 1514 1515 1516 1517 1517 1518 1519 1519 1520 1520 1520 1521 1521 1522 1522 1523 1523 1523 1523 1523 1523 1523 1523 1523 1523 1523 1523 1523 1523 1523 1523 1523 1524 1523
1503 1504 1506 1507 1508 1510 1511 1512 1513 1514 1515 1516 1517 1517 1518 1518 1519 1520 1520 1520 1521 1521 1522 1522 1522 1523 1523 1523 1523 1523 1523 1523 1523 1523 1523 1524 1523 1523 1523 1523 1523 1523 1523
1503 1505 1506 1507 1509 1510 1511 1512 1513 1514 1515 1516 1516 1517 1518 1518 1519 1519 1520 1520 1520 1521 1521 1522 1522 1522 1522 1523 1523 1523 1523 1523 1523 1523 1524 1524 1524 1523 1523 1523 1523 1523 1523
1503 1505 1506 1507 1509 1510 1511 1512 1513 1514 1515 1515 1516 1517 1517 1518 1518 1519 1519 1520 1520 1520 1521 1521 1522 1522 1522 1522 1522 1522 1522 1523 1523 1523 1524 1524 1523 1523 1523 1523 1523 1523 1523
1504 1505 1506 1508 1509 1510 1511 1512 1513 1514 1514 1515 1516 1516 1517 1517 1518 1518 1519 1519 1519 1520 1520 1520 1521 1521 1521 1521 1522 1522 1522 1522 1522 1523 1523 1523 1523 1522 1522 1522 1522 1522 1522
1504 1506 1507 1508 1509 1510 1511 1512 1513 1513 1514 1515 1515 1516 1516 1517 1517 1517 1518 1518 1518 1519 1519 1519 1520 1520 1520 1521 1521 1521 1521 1521 1522 1522 1522 1522 1522 1521 1521 1521 1521 1521 1521
1504 1505 1506 1507 1509 1510 1511 1511 1512 1513 1513 1514 1515 1515 1515 1516 1516 1516 1517 1517 1517 1517 1518 1518 1519 1519 1519 1520 1520 1520 1520 1520 1520 1521 1520 1520 1520 1520 1520 1520 1520 1520 1520
1504 1505 1506 1507 1508 1509 1510 1511 1511 1512 1512 1513 1514 1514 1514 1515 1515 1515 1515 1516 1516 1516 1516 1517 1517 1517 1518 1518 1518 1518 1519 1519 1519 1519 1519 1519 1518 1518 1518 1519 1519 1519 1518
1503 1504 1505 1507 1508 1508 1509 1510 1510 1511 1511 1512 1512 1513 1513 1513 1513 1514 1514 1514 1514 1515 1515 1515 1515 1516 1516 1516 1517 1517 1517 1517 1518 1517 1517 1517 1516 1516 1516 1517 1517 1517 1517
1502 1503 1504 1505 1506 1507 1508 1508 1509 1509 1510 1510 1511 1511 1512 1512 1512 1512 1512 1512 1513 1513 1513 1514 1514 1514 1514 1514 1514 1515 1515 1515 1516 1515 1515 1514 1514 1514 1514 1514 1514 1514 1514
1500 1501 1502 1504 1505 1505 1506 1507 1507 1508 1508 1509 1509 1509 1510 1510 1510 1510 1510 1511 1511 1511 1511 1512 1512 1512 1512 1512 1512 1512 1513 1513 1513 1512 1512 1512 1512 1512 1512 1511 1511 1511 1511
1499 1499 1500 1502 1503 1503 1504 1505 1505 1506 1506 1507 1507 1508 1508 1508 1508 1508 1508 1508 1509 1509 1509 1509 1509 1509 1509 1509 1509 1509 1509 1510 1509 1509 1509 1508 1509 1509 1509 1508 1508 1508 1508
1496 1497 1498 1499 1500 1501 1502 1503 1503 1504 1504 1505 1505 1505 1506 1505 1506 1506 1506 1506 1506 1506 1506 1506 1506 1506 1506 1506 1506 1506 1506 1506 1506 1506 1505 1505 1505 1505 1505 1505 1505 1505 1504
1493 1495 1496 1497 1498 1499 1500 1500 1501 1502 1502 1502 1503 1503 1503 1503 1503 1503 1503 1503 1503 1503 1503 1503 1503 1503 1503 1503 1503 1503 1503 1503 1502 1502 1501 1501 1501 1501 1501 1501 1501 1500 1500
1490 1491 1493 1494 1495 1496 1497 1498 1499 1499 1500 1500 1500 1500 1500 1500 1500 1500 1500 1500 1501 1500 1500 1500 1500 1500 1500 1500 1499 1499 1499 1499 1499 1498 1498 1497 1497 1497 1496 1496 1496 1496 1496
1487 1488 1489 1491 1492 1493 1494 1495 1496 1497 1497 1497 1497 1498 1498 1498 1498 1497 1497 1497 1497 1497 1497 1497 1497 1496 1496 1496 1495 1495 1495 1495 1494 1494 1493 1493 1492 1492 1491 1491 1491 1491 1491
1483 1485 1486 1488 1489 1490 1491 1492 1493 1494 1494 1494 1494 1494 1494 1495 1494 1494 1494 1494 1494 1494 1493 1493 1493 1492 1492 1492 1491 1491 1490 1490 1489 1489 1489 1488 1487 1487 1486 1486 1486 1486 1485
1480 1481 1483 1484 1486 1487 1488 1489 1490 1491 1491 1491 1491 1491 1491 1491 1491 1491 1490 1490 1490 1490 1490 1489 1489 1489 1488 1487 1487 1486 1485 1485 1484 1484 1483 1483 1482 1482 1481 1481 1480 1480 1480
1476 1477 1479 1480 1482 1483 1484 1486 1486 1487 1487 1488 1487 1487 1487 1487 1487 1487 1486 1486 1486 1486 1485 1485 1485 1484 1484 1483 1482 1481 1480 1479 1479 1478 1478 1478 1477 1476 1476 1475 1475 1474 1473
1471 1473 1474 1476 1478 1479 1480 1481 1482 1482 1483 1483 1483 1484 1483 1483 1483 1483 1482 1482 1482 1481 1481 1481 1481 1480 1479 1479 1478 1476 1475 1474 1473 1473 1473 1472 1472 1471 1471 1470 1469 1468 1467
1466 1468 1470 1471 1473 1475 1476 1477 1478 1478 1478 1479 1479 1479 1479 1479 1478 1478 1477 1477 1477 1476 1476 1476 1476 1475 1475 1475 1475 1473 1470 1469 1468 1468 1467 1466 1466 1466 1465 1464 1463 1463 1462
1461 1463 1465 1466 1468 1470 1471 1472 1473 1473 1474 1474 1474 1474 1474 1474 1474 1473 1473 1472 1472 1472 1471 1471 1471 1470 1470 1470 1470 1471 1468 1464 1463 1462 1461 1461 1460 1459 1459 1458 1457 1456 1456
1457 1459 1460 1462 1464 1465 1467 1467 1468 1468 1469 1469 1469 1469 1469 1469 1469 1468 1468 1467 1467 1466 1466 1466 1466 1465 1465 1464 1464 1464 1464 1462 1461 1456 1455 1455 1455 1454 1453 1452 1451 1450 1449
1453 1454 1456 1458 1459 1461 1462 1463 1464 1464 1465 1465 1465 1465 1464 1464 1464 1463 1463 1462 1461 1461 1460 1460 1460 1459 1459 1458 1458 1458 1457 1457 1456 1454 1450 1449 1449 1448 1447 1446 1445 1443 1442
1449 1451 1452 1454 1455 1456 1457 1458 1459 1459 1460 1460 1460 1460 1459 1459 1459 1458 1458 1457 1456 1455 1455 1454 1454 1453 1453 1452 1452 1452 1451 1451 1450 1449 1446 1443 1442 1441 1441 1440 1438 1437 1436